Simultaneous Nadir Overpasses (SNOs) Predictions

Prediction of SNOs between GOES-17 and METOP-B Satellite Orbit:

Table of predicted SNOs for the next 14.0 days since TLE Epoch: 4/23/2022
Index Date Time (GOES-17) GOES-17 Lat,Lon METOP-B Lat,Lon Distance(km) Time Diff (sec)
1 04/23/2022 06:57:46 -0.05,-137.18 -1.01,-141.42 483.44 80
2 04/24/2022 06:34:27 -0.05,-137.18 0.11,-136.43 85.83 80
3 04/25/2022 18:53:18 0.05,-137.19 0.92,-140.99 432.98 80
4 04/26/2022 18:35:19 0.04,-137.19 -0.20,-135.99 136.42 80
5 04/28/2022 06:54:19 -0.04,-137.19 -0.80,-140.59 387.65 80
6 04/29/2022 06:31:00 -0.04,-137.19 0.33,-135.60 181.54 80
7 04/30/2022 18:49:51 0.04,-137.19 0.69,-140.16 337.77 80
8 05/01/2022 18:31:51 0.04,-137.19 -0.44,-135.16 231.05 80
9 05/03/2022 06:50:51 -0.04,-137.17 -0.62,-139.75 294.22 80
10 05/04/2022 06:27:31 -0.03,-137.16 0.51,-134.76 274.03 80
11 05/05/2022 18:46:23 0.03,-137.15 0.49,-139.32 246.76 80
12 05/06/2022 18:28:22 0.02,-137.14 -0.58,-134.31 321.15 80
